Vertical_Velocity
-1 3 7 2 -1 2 -0 -2 2 -0 4 2 0 5 2 -4 1 0 -1 0 -1 1
5 31 8 -4 1 0 0 1 9 3 4 -1 -2 9 -0 -0 -0 -2 -0 -3 -0 -1
5 4 32 11 1 -2 6 7 4 10 -0 2 8 9 3 1 -2 -1 -2 -1 0 -1
6 3 21 9 4 -3 7 6 4 -2 0 2 15 5 -0 -2 1 -2 -3 -0 -0 1
51 38 -3 3 -3 0 1 3 7 3 2 1 1 0 -0 1 -1 -2 1 -4 -2 2
0 5 -14 1 -3 -10 0 3 4 -0 0 -1 -0 2 2 -0 -2 2 0 -1 0 -4
16 -1 8 5 4 3 -1 -1 -2 -3 5 3 8 -0 -3 -0 3 0 1 0 -1 -3
-3 -1 4 -2 4 2 -1 -3 -4 2 5 2 0 1 1 -1 -2 -0 -1 -4 -2 -1
-11 2 1 -2 2 3 -3 -1 -1 4 4 6 0 2 0 -2 1 -2 -4 -2 -3 -2
-3 -3 6 -3 2 1 -9 2 3 -4 5 3 0 4 -1 -3 -2 -4 0 -2 -3 -3
-3 -8 -2 4 6 1 -0 -2 -0 2 -2 1 1 5 3 -5 -0 -0 1 0 -2 -0
-1 -2 -4 5 5 5 6 -0 1 1 3 1 2 4 1 -3 -3 -3 -0 0 -4 -2
-3 2 4 2 2 4 12 12 2 6 2 3 3 3 -1 -4 0 -1 2 1 -2 -4
-7 6 4 1 -4 5 4 17 -0 -1 7 10 2 -3 -2 -1 2 -0 0 -0 -3 -3
Height
5659 5655 5658 5658 5658 5659 5660 5661 5661 5662 5662 5661 5660 5658 5659 5661 5661 5660 5658 5655 5652 5650
5649 5647 5643 5648 5648 5649 5649 5649 5651 5650 5650 5650 5648 5649 5651 5651 5650 5649 5647 5646 5643 5641
5637 5637 5627 5631 5636 5638 5639 5639 5639 5640 5641 5639 5639 5642 5642 5641 5641 5639 5638 5636 5634 5632
5626 5626 5622 5619 5624 5628 5628 5627 5628 5630 5630 5630 5632 5633 5632 5632 5631 5629 5629 5627 5626 5624
5601 5609 5611 5610 5616 5617 5617 5618 5619 5621 5621 5620 5622 5623 5622 5622 5621 5620 5620 5620 5618 5615
5592 5597 5601 5603 5604 5606 5606 5608 5609 5608 5608 5610 5611 5611 5611 5611 5611 5611 5611 5612 5610 5607
5586 5593 5593 5594 5592 5594 5596 5597 5598 5596 5598 5599 5600 5601 5601 5601 5601 5603 5605 5603 5602 5599
5576 5582 5585 5582 5583 5584 5586 5588 5587 5587 5589 5589 5590 5591 5592 5593 5594 5596 5597 5596 5594 5590
5570 5572 5574 5575 5576 5577 5577 5577 5576 5578 5578 5578 5581 5583 5584 5583 5586 5588 5588 5587 5584 5582
5563 5563 5565 5567 5566 5566 5568 5566 5565 5567 5568 5570 5572 5574 5576 5575 5578 5579 5579 5578 5575 5573
5551 5553 5553 5552 5554 5557 5556 5556 5558 5559 5560 5562 5565 5566 5567 5567 5569 5571 5570 5568 5566 5563
5541 5543 5544 5544 5543 5542 5545 5547 5548 5552 5553 5555 5557 5558 5558 5559 5561 5562 5560 5559 5557 5554
5532 5533 5533 5532 5534 5535 5536 5536 5539 5543 5545 5547 5549 5551 5550 5552 5553 5552 5551 5550 5549 5546
5521 5521 5522 5524 5525 5525 5526 5525 5531 5535 5538 5540 5541 5541 5542 5544 5543 5543 5542 5542 5540 5538